User: anonymous   Login
Location: Unspecified
(0.0000°N, 0.0000°E)
Time: 21:06:34
(UTC+00:00)
Language:

HULIANWANG DIGUI-57 - Orbit

View from above orbital plane
View from above orbital plane
View from above satellite
View from above satellite

Ground track
Ground track

The orbit is defined by the following mean orbital elements,

1 65114U          26145.61588324 +.00000000 +00000-0 +10822-3 0 00001
2 65114  50.0027  46.2958 0009830  36.9077 323.2470 13.29321787    03
Epoch (UTC): 25 May 2026 14:46:52
Eccentricity: 0.0009830
inclination: 50.0027°
perigee height: 1142 km
apogee height: 1157 km
right ascension of ascending node: 46.2958°
argument of perigee: 36.9077°
revolutions per day: 13.29321787
mean anomaly at epoch: 323.2470°

The dashed part of the orbit path shows where the satellite is in the earth's shadow,  

DLR